SCP
0 0 0 0 0 0 0 0 0 0 0 0 0 0 0 0 0 0 0 0 0 0 0 0 0 0 0 0 0 0 0 0 0 0 0 0 0 0 0 0 0 0 0
0 0 0 0 0 0 0 0 0 0 0 0 0 0 0 0 0 0 0 0 0 0 0 0 0 0 0 0 0 0 -0 0 0 0 0 -0 -0 -0 -0 -0 -0 0 0
0 0 0 0 0 0 0 0 0 0 0 0 0 0 0 0 0 0 0 0 0 0 0 0 0 0 0 0 -0 -0 -0 -0 -0 -0 -0 -0 -0 -0 -0 -0 -0 -0 -0
0 0 0 0 0 0 0 0 0 0 0 0 0 0 0 0 0 0 0 0 0 0 0 0 0 0 0 0 0 -0 -0 -0 -0 -0 -0 -0 -0 -0 -0 -0 -0 -0 -0
0 0 0 0 0 0 0 0 0 0 0 0 0 0 0 0 0 0 0 0 0 0 0 0 0 0 0 0 0 0 0 -0 -0 -0 -0 -0 -0 -0 -0 -0 -0 -0 -0
0 0 0 0 0 0 0 0 0 0 0 0 0 0 0 0 0 0 0 0 0 0 0 0 0 0 0 0 0 0 0 0 -0 -0 -0 -0 -0 -0 -0 -0 -0 -0 -0
0 0 0 0 0 0 0 0 0 0 0 0 0 0 0 0 0 0 0 0 0 0 0 0 0 0 0 0 0 0 0 0 0 0 0 0 0 0 -0 -0 -0 -0 -0
0 0 0 0 0 0 0 0 0 0 0 0 0 0 0 0 0 0 0 0 0 0 0 0 0 0 0 0 0 0 0 0 0 0 0 0 0 0 0 0 0 0 0
0 0 0 0 0 0 0 0 0 0 0 0 0 0 0 0 0 0 0 0 0 0 0 0 0 0 0 0 0 0 0 0 0 0 0 0 0 0 0 0 0 0 0
0 0 0 0 0 0 0 0 0 0 0 0 0 0 0 0 0 0 0 0 0 0 0 0 0 0 0 0 0 0 0 0 0 0 0 0 0 0 0 0 0 0 0
0 0 0 0 0 0 0 0 0 0 0 0 0 0 0 0 0 0 0 0 0 0 0 0 0 0 0 0 0 0 0 0 0 0 0 0 0 0 0 0 0 0 0
0 0 0 0 0 0 0 0 0 0 0 0 0 0 0 0 0 0 0 0 0 0 0 0 0 0 0 0 0 0 0 0 0 0 0 0 0 0 0 0 0 0 0
0 0 0 0 0 0 0 0 0 0 0 0 0 0 0 0 0 0 0 0 0 0 0 0 0 0 0 0 0 0 0 0 0 0 0 0 0 0 0 0 0 0 0
0 0 0 0 0 0 0 0 0 0 0 0 0 0 0 0 0 0 0 0 0 0 0 0 0 0 0 0 0 0 0 0 0 0 0 0 0 0 0 0 0 0 0
0 0 0 0 0 0 0 0 0 0 0 0 0 0 0 0 0 0 0 0 0 0 0 0 0 0 0 0 0 0 0 0 0 0 0 0 0 0 0 0 0 0 0
0 0 0 0 0 0 0 0 0 0 0 0 0 0 0 0 0 0 0 0 0 0 0 0 0 0 0 0 0 0 0 0 0 0 0 0 0 0 0 0 0 0 0
0 0 0 0 0 0 0 0 0 0 0 0 0 0 0 0 0 0 0 0 0 0 0 0 0 0 0 0 0 0 0 0 0 0 0 0 0 0 0 0 0 0 0
0 0 0 0 0 0 0 0 0 0 0 0 0 0 0 0 0 0 0 0 0 0 0 0 0 0 0 0 0 0 0 0 0 0 0 0 0 0 0 0 0 0 0
0 0 0 0 0 0 0 0 0 0 0 0 0 0 0 0 0 0 0 0 0 0 0 0 0 0 0 0 0 0 0 0 0 0 0 0 0 0 0 0 0 0 0
0 0 0 0 0 0 0 0 0 0 0 0 0 0 0 0 0 0 0 0 0 0 0 0 0 0 0 0 0 0 0 0 0 0 0 0 0 0 0 0 0 0 0
0 0 0 0 0 0 0 0 0 0 0 0 0 0 0 0 0 0 0 0 0 0 0 0 0 0 0 0 0 0 0 0 0 0 0 0 0 0 0 0 0 0 0
0 0 0 0 0 0 0 0 0 0 0 0 0 0 0 0 0 0 0 0 0 0 0 0 0 0 0 0 0 0 0 0 0 0 0 0 0 0 0 0 0 0 0
0 0 0 0 0 0 0 0 0 0 0 0 0 0 0 0 0 0 0 0 0 0 0 0 0 0 0 0 0 0 0 0 0 0 0 0 0 0 0 0 0 0 0
0 0 0 0 0 0 0 0 0 0 0 0 0 0 0 0 0 0 0 0 0 0 0 0 0 0 0 0 0 0 0 0 0 0 0 0 0 0 0 0 0 0 0
0 0 0 0 0 0 0 0 0 0 0 0 0 0 0 0 0 0 0 0 0 0 0 0 0 0 0 0 0 0 0 0 0 0 0 0 0 0 0 0 0 0 0
0 0 0 0 0 0 0 0 0 0 0 0 0 0 0 0 0 0 0 0 0 0 0 0 0 0 0 0 0 0 0 0 0 0 0 0 0 0 0 0 0 0 0
Wind_Speed_500mb
29 25 24 23 23 24 26 28 31 34 36 36 35 33 31 28 24 20 15 9 6 8 11 13 15 18 22 25 28 31 35 37 45 65 65 68 65 63 64 61 57 61 69
34 32 28 28 28 28 29 30 32 34 33 32 29 25 23 18 10 4 5 9 11 14 18 21 26 30 33 38 43 45 47 47 56 74 79 83 85 82 81 83 76 69 64
40 37 35 33 31 29 29 30 30 29 27 24 20 17 14 8 3 6 10 13 16 19 23 28 33 37 41 45 48 50 53 58 61 69 81 81 84 87 90 90 94 92 89
45 42 38 35 32 28 28 27 27 25 22 19 16 15 12 8 6 9 12 16 19 23 26 30 36 41 46 50 54 57 59 62 65 70 76 82 83 85 83 92 102 99 107
49 45 40 35 30 27 25 24 23 21 19 16 13 12 12 10 11 13 18 21 23 25 28 31 35 39 43 48 52 55 59 63 65 68 74 77 81 85 87 90 96 104 105
52 47 40 34 30 27 24 22 20 19 18 16 13 11 14 15 16 19 23 26 28 30 33 35 37 41 44 48 48 49 53 58 60 64 65 68 75 77 82 85 89 96 105
55 50 43 38 32 28 24 22 20 19 18 16 15 13 15 18 20 24 23 27 30 31 34 38 39 40 43 48 50 51 51 48 52 59 62 67 74 75 80 86 85 85 91
57 51 46 40 35 31 27 25 23 21 19 16 15 14 15 18 22 29 28 30 32 32 34 36 39 42 44 49 54 55 53 53 53 57 61 68 70 73 72 76 81 89 95
58 53 47 41 38 34 30 27 24 21 18 16 14 14 15 18 23 29 34 34 36 34 32 32 35 40 44 50 54 58 60 58 57 59 62 65 67 69 69 75 79 86 106
57 52 47 43 40 34 30 26 23 20 18 16 14 16 19 17 23 29 36 38 40 41 41 38 35 41 45 47 51 57 63 67 71 73 72 71 70 71 68 66 70 76 82
56 51 45 41 37 32 28 24 22 19 16 14 14 16 21 22 24 29 35 36 40 44 44 44 46 45 47 48 49 54 57 68 71 74 76 75 75 73 71 68 64 64 72
54 52 46 40 35 30 25 22 19 16 15 16 16 18 21 25 28 29 31 35 35 42 44 48 45 47 51 52 52 55 59 63 66 68 70 72 74 75 74 73 70 66 65
45 44 44 39 32 26 26 22 19 17 17 20 21 22 23 25 26 30 33 37 39 38 47 41 49 49 52 54 53 54 56 59 62 66 69 71 72 75 77 78 77 76 79
43 38 36 33 28 28 25 21 19 18 20 23 24 25 26 27 28 31 36 39 39 42 49 51 48 50 50 52 53 51 50 53 57 61 66 70 73 77 79 78 83 84 89
38 36 31 29 29 26 22 20 20 21 24 25 26 27 30 29 31 30 30 36 34 37 49 47 50 51 54 53 52 53 53 54 58 61 65 69 73 78 81 80 78 83 87
32 29 32 32 27 22 23 23 23 23 23 23 25 28 32 33 34 30 29 29 31 37 46 50 51 52 52 54 57 59 56 55 56 59 64 67 72 78 82 81 76 79 88
35 38 31 29 29 25 22 21 22 24 23 24 27 30 34 36 34 31 29 26 36 41 45 47 49 50 52 54 55 57 61 58 58 59 62 66 69 74 77 79 76 79 87
34 34 30 29 27 26 24 24 24 26 25 25 29 32 34 33 31 32 30 36 35 35 42 46 48 50 53 54 56 59 60 60 60 61 62 64 66 71 74 74 73 78 84
27 26 28 28 27 25 26 28 29 30 30 29 27 28 34 31 30 31 33 39 43 41 43 47 49 52 54 55 56 58 60 61 60 61 62 63 65 68 69 68 71 74 80
29 27 25 25 26 28 30 31 33 33 32 32 29 29 30 36 32 30 33 37 42 46 48 51 51 53 55 55 57 59 61 61 61 60 61 62 64 64 64 66 69 75 80
25 24 26 28 30 32 33 33 33 36 37 36 32 32 35 40 38 38 38 39 44 47 51 53 54 55 57 57 58 60 61 62 61 62 62 61 63 65 59 59 66 71 77
27 28 28 29 31 33 35 36 37 40 40 40 35 32 36 39 41 43 45 46 46 48 50 55 57 58 58 59 60 62 63 63 61 61 62 59 61 62 60 60 63 67 73
27 27 29 32 34 37 37 38 39 41 40 40 41 41 39 42 44 47 49 50 51 51 51 54 58 59 58 58 59 61 64 64 62 61 61 59 60 59 60 61 62 66 70
29 31 33 35 38 39 40 40 42 42 43 43 43 45 46 47 49 50 52 53 55 55 55 57 59 61 60 60 59 59 61 61 62 60 56 60 62 57 58 57 62 68 67
33 34 34 36 40 42 44 44 43 42 44 46 47 49 50 51 53 54 55 55 57 58 58 59 61 62 61 61 61 60 59 60 59 55 54 57 60 53 52 54 64 67 65
34 37 40 41 42 43 46 46 45 45 47 48 51 52 53 55 57 58 58 59 61 62 63 63 62 62 63 64 61 60 60 58 55 48 50 55 56 55 55 55 60 65 66
Wind_Direction_500mb
238 246 255 266 276 280 283 286 290 291 291 291 292 292 290 289 290 290 292 301 336 3 5 3 0 357 351 347 345 341 338 331 321 317 322 325 325 323 321 318 315 301 293
242 248 250 256 261 266 273 280 285 288 289 290 289 286 283 284 285 304 7 16 14 11 10 1 356 351 347 345 345 344 342 340 332 326 327 328 329 329 325 321 318 312 306
241 243 245 248 254 260 270 278 282 285 286 285 283 277 276 262 266 344 7 15 10 5 359 353 349 343 341 340 338 337 336 334 333 329 325 327 327 330 326 323 321 317 313
240 240 243 246 251 257 266 274 278 279 275 269 259 254 253 257 286 332 344 352 358 356 351 347 342 340 337 335 334 333 333 331 330 327 325 325 327 328 328 326 317 319 317
240 239 241 244 249 255 261 264 264 263 259 253 247 252 266 277 298 318 327 335 342 345 342 341 338 336 332 330 330 332 333 331 330 329 327 327 329 329 331 328 321 318 313
243 242 243 245 248 252 254 254 251 247 243 243 249 262 282 296 312 326 333 334 336 336 336 336 334 331 328 326 326 328 330 332 330 329 328 327 328 330 326 326 324 322 321
244 243 243 242 242 242 240 239 237 236 237 241 252 267 287 302 315 318 329 329 332 335 335 332 330 327 324 321 321 322 322 322 320 322 321 323 323 326 325 323 321 316 310
239 238 237 235 234 232 231 230 230 233 237 244 256 270 287 302 314 315 323 326 328 334 335 332 329 327 325 321 321 321 320 319 317 314 313 316 317 318 317 315 314 312 307
235 234 233 231 230 228 225 224 224 231 239 247 260 279 294 309 316 315 317 322 322 328 331 330 328 325 324 325 325 323 322 322 319 316 316 316 316 315 315 313 315 315 310
232 230 229 225 222 220 220 220 224 229 234 245 262 280 293 304 310 313 319 326 326 330 331 328 329 324 325 328 327 325 324 324 323 321 318 316 315 315 315 316 315 315 313
231 227 223 220 219 217 216 217 220 227 241 253 270 287 301 309 311 311 315 322 324 326 327 330 330 332 329 329 327 326 322 320 321 320 319 319 319 318 316 314 314 312 307
227 221 217 214 213 214 217 224 233 242 254 268 279 290 299 302 304 305 310 314 319 323 322 329 326 326 329 329 328 324 321 319 318 320 322 324 326 326 324 323 321 314 306
223 218 208 203 208 214 220 226 234 246 263 274 284 291 295 298 303 306 312 313 322 318 321 320 325 325 327 327 328 326 326 327 327 327 328 328 328 327 325 325 323 322 314
212 213 214 200 206 219 225 229 241 259 271 281 289 294 296 299 304 309 311 315 322 323 316 321 325 325 326 325 325 328 331 332 331 330 328 328 328 329 329 333 329 328 324
201 208 216 217 213 220 230 243 258 268 274 281 287 292 295 300 305 310 312 317 329 318 305 320 322 323 323 325 327 330 334 334 332 331 329 329 329 329 331 335 335 331 331
196 209 221 226 224 231 243 250 261 268 273 278 284 290 294 301 304 305 306 318 305 308 318 319 321 322 324 327 329 330 332 334 331 330 329 329 330 331 332 335 337 335 333
203 210 220 236 245 241 249 256 266 272 270 276 281 284 290 293 296 298 303 303 307 310 313 316 317 319 323 326 326 327 329 331 330 329 327 328 329 329 331 335 337 336 334
208 218 233 239 247 253 260 267 269 268 269 271 277 282 284 287 294 298 301 295 306 304 308 313 317 320 321 322 324 324 324 326 326 325 325 325 327 329 330 334 337 336 335
229 228 234 243 253 264 273 276 277 279 278 277 280 285 288 291 294 297 298 302 306 311 312 313 315 317 318 320 320 319 320 321 322 322 321 321 325 327 329 331 333 335 335
228 236 244 257 268 274 276 276 276 278 284 292 295 290 284 288 290 289 292 301 307 309 310 310 311 313 315 317 318 317 317 319 319 319 317 318 322 323 327 328 332 334 335
241 252 260 266 268 269 270 274 281 288 292 292 291 290 293 296 303 304 306 305 305 305 307 308 311 313 314 315 315 314 315 316 316 315 313 315 318 319 323 325 328 332 335
251 257 262 266 270 276 279 281 281 284 288 289 291 291 293 297 300 302 303 304 304 305 307 307 309 311 312 314 314 313 312 313 314 311 308 311 314 315 318 321 327 331 336
258 267 275 278 278 277 277 280 284 287 289 291 294 296 295 296 299 301 303 305 305 306 306 306 307 309 310 310 311 310 310 311 310 307 305 306 310 311 314 317 325 330 334
267 272 274 277 281 283 284 286 287 286 287 291 293 296 298 299 300 302 304 305 305 306 308 308 307 308 308 308 308 309 307 306 304 303 299 303 307 307 307 313 324 329 328
270 274 280 287 286 286 286 288 288 289 290 291 294 295 297 300 302 303 305 305 305 306 306 305 306 306 306 306 307 308 305 303 300 297 295 295 297 301 307 312 319 321 322
283 286 288 287 287 288 289 288 288 289 290 291 293 295 299 301 302 304 306 307 307 306 305 306 305 305 306 306 307 305 303 302 298 291 290 296 298 303 308 305 311 316 317
Wind_Speed_850mb
29 25 24 23 23 24 26 28 31 34 36 36 35 33 31 28 24 20 15 9 6 8 11 13 15 18 22 25 28 31 35 37 45 65 65 68 65 63 64 61 57 61 69
34 32 28 28 28 28 29 30 32 34 33 32 29 25 23 18 10 4 5 9 11 14 18 21 26 30 33 38 43 45 47 47 56 74 79 83 85 82 81 83 76 69 64
40 37 35 33 31 29 29 30 30 29 27 24 20 17 14 8 3 6 10 13 16 19 23 28 33 37 41 45 48 50 53 58 61 69 81 81 84 87 90 90 94 92 89
45 42 38 35 32 28 28 27 27 25 22 19 16 15 12 8 6 9 12 16 19 23 26 30 36 41 46 50 54 57 59 62 65 70 76 82 83 85 83 92 102 99 107
49 45 40 35 30 27 25 24 23 21 19 16 13 12 12 10 11 13 18 21 23 25 28 31 35 39 43 48 52 55 59 63 65 68 74 77 81 85 87 90 96 104 105
52 47 40 34 30 27 24 22 20 19 18 16 13 11 14 15 16 19 23 26 28 30 33 35 37 41 44 48 48 49 53 58 60 64 65 68 75 77 82 85 89 96 105
55 50 43 38 32 28 24 22 20 19 18 16 15 13 15 18 20 24 23 27 30 31 34 38 39 40 43 48 50 51 51 48 52 59 62 67 74 75 80 86 85 85 91
57 51 46 40 35 31 27 25 23 21 19 16 15 14 15 18 22 29 28 30 32 32 34 36 39 42 44 49 54 55 53 53 53 57 61 68 70 73 72 76 81 89 95
58 53 47 41 38 34 30 27 24 21 18 16 14 14 15 18 23 29 34 34 36 34 32 32 35 40 44 50 54 58 60 58 57 59 62 65 67 69 69 75 79 86 106
57 52 47 43 40 34 30 26 23 20 18 16 14 16 19 17 23 29 36 38 40 41 41 38 35 41 45 47 51 57 63 67 71 73 72 71 70 71 68 66 70 76 82
56 51 45 41 37 32 28 24 22 19 16 14 14 16 21 22 24 29 35 36 40 44 44 44 46 45 47 48 49 54 57 68 71 74 76 75 75 73 71 68 64 64 72
54 52 46 40 35 30 25 22 19 16 15 16 16 18 21 25 28 29 31 35 35 42 44 48 45 47 51 52 52 55 59 63 66 68 70 72 74 75 74 73 70 66 65
45 44 44 39 32 26 26 22 19 17 17 20 21 22 23 25 26 30 33 37 39 38 47 41 49 49 52 54 53 54 56 59 62 66 69 71 72 75 77 78 77 76 79
43 38 36 33 28 28 25 21 19 18 20 23 24 25 26 27 28 31 36 39 39 42 49 51 48 50 50 52 53 51 50 53 57 61 66 70 73 77 79 78 83 84 89
38 36 31 29 29 26 22 20 20 21 24 25 26 27 30 29 31 30 30 36 34 37 49 47 50 51 54 53 52 53 53 54 58 61 65 69 73 78 81 80 78 83 87
32 29 32 32 27 22 23 23 23 23 23 23 25 28 32 33 34 30 29 29 31 37 46 50 51 52 52 54 57 59 56 55 56 59 64 67 72 78 82 81 76 79 88
35 38 31 29 29 25 22 21 22 24 23 24 27 30 34 36 34 31 29 26 36 41 45 47 49 50 52 54 55 57 61 58 58 59 62 66 69 74 77 79 76 79 87
34 34 30 29 27 26 24 24 24 26 25 25 29 32 34 33 31 32 30 36 35 35 42 46 48 50 53 54 56 59 60 60 60 61 62 64 66 71 74 74 73 78 84
27 26 28 28 27 25 26 28 29 30 30 29 27 28 34 31 30 31 33 39 43 41 43 47 49 52 54 55 56 58 60 61 60 61 62 63 65 68 69 68 71 74 80
29 27 25 25 26 28 30 31 33 33 32 32 29 29 30 36 32 30 33 37 42 46 48 51 51 53 55 55 57 59 61 61 61 60 61 62 64 64 64 66 69 75 80
25 24 26 28 30 32 33 33 33 36 37 36 32 32 35 40 38 38 38 39 44 47 51 53 54 55 57 57 58 60 61 62 61 62 62 61 63 65 59 59 66 71 77
27 28 28 29 31 33 35 36 37 40 40 40 35 32 36 39 41 43 45 46 46 48 50 55 57 58 58 59 60 62 63 63 61 61 62 59 61 62 60 60 63 67 73
27 27 29 32 34 37 37 38 39 41 40 40 41 41 39 42 44 47 49 50 51 51 51 54 58 59 58 58 59 61 64 64 62 61 61 59 60 59 60 61 62 66 70
29 31 33 35 38 39 40 40 42 42 43 43 43 45 46 47 49 50 52 53 55 55 55 57 59 61 60 60 59 59 61 61 62 60 56 60 62 57 58 57 62 68 67
33 34 34 36 40 42 44 44 43 42 44 46 47 49 50 51 53 54 55 55 57 58 58 59 61 62 61 61 61 60 59 60 59 55 54 57 60 53 52 54 64 67 65
34 37 40 41 42 43 46 46 45 45 47 48 51 52 53 55 57 58 58 59 61 62 63 63 62 62 63 64 61 60 60 58 55 48 50 55 56 55 55 55 60 65 66
Wind_Direction_850mb
238 246 255 266 276 280 283 286 290 291 291 291 292 292 290 289 290 290 292 301 336 3 5 3 0 357 351 347 345 341 338 331 321 317 322 325 325 323 321 318 315 301 293
242 248 250 256 261 266 273 280 285 288 289 290 289 286 283 284 285 304 7 16 14 11 10 1 356 351 347 345 345 344 342 340 332 326 327 328 329 329 325 321 318 312 306
241 243 245 248 254 260 270 278 282 285 286 285 283 277 276 262 266 344 7 15 10 5 359 353 349 343 341 340 338 337 336 334 333 329 325 327 327 330 326 323 321 317 313
240 240 243 246 251 257 266 274 278 279 275 269 259 254 253 257 286 332 344 352 358 356 351 347 342 340 337 335 334 333 333 331 330 327 325 325 327 328 328 326 317 319 317
240 239 241 244 249 255 261 264 264 263 259 253 247 252 266 277 298 318 327 335 342 345 342 341 338 336 332 330 330 332 333 331 330 329 327 327 329 329 331 328 321 318 313
243 242 243 245 248 252 254 254 251 247 243 243 249 262 282 296 312 326 333 334 336 336 336 336 334 331 328 326 326 328 330 332 330 329 328 327 328 330 326 326 324 322 321
244 243 243 242 242 242 240 239 237 236 237 241 252 267 287 302 315 318 329 329 332 335 335 332 330 327 324 321 321 322 322 322 320 322 321 323 323 326 325 323 321 316 310
239 238 237 235 234 232 231 230 230 233 237 244 256 270 287 302 314 315 323 326 328 334 335 332 329 327 325 321 321 321 320 319 317 314 313 316 317 318 317 315 314 312 307
235 234 233 231 230 228 225 224 224 231 239 247 260 279 294 309 316 315 317 322 322 328 331 330 328 325 324 325 325 323 322 322 319 316 316 316 316 315 315 313 315 315 310
232 230 229 225 222 220 220 220 224 229 234 245 262 280 293 304 310 313 319 326 326 330 331 328 329 324 325 328 327 325 324 324 323 321 318 316 315 315 315 316 315 315 313
231 227 223 220 219 217 216 217 220 227 241 253 270 287 301 309 311 311 315 322 324 326 327 330 330 332 329 329 327 326 322 320 321 320 319 319 319 318 316 314 314 312 307
227 221 217 214 213 214 217 224 233 242 254 268 279 290 299 302 304 305 310 314 319 323 322 329 326 326 329 329 328 324 321 319 318 320 322 324 326 326 324 323 321 314 306
223 218 208 203 208 214 220 226 234 246 263 274 284 291 295 298 303 306 312 313 322 318 321 320 325 325 327 327 328 326 326 327 327 327 328 328 328 327 325 325 323 322 314
212 213 214 200 206 219 225 229 241 259 271 281 289 294 296 299 304 309 311 315 322 323 316 321 325 325 326 325 325 328 331 332 331 330 328 328 328 329 329 333 329 328 324
201 208 216 217 213 220 230 243 258 268 274 281 287 292 295 300 305 310 312 317 329 318 305 320 322 323 323 325 327 330 334 334 332 331 329 329 329 329 331 335 335 331 331
196 209 221 226 224 231 243 250 261 268 273 278 284 290 294 301 304 305 306 318 305 308 318 319 321 322 324 327 329 330 332 334 331 330 329 329 330 331 332 335 337 335 333
203 210 220 236 245 241 249 256 266 272 270 276 281 284 290 293 296 298 303 303 307 310 313 316 317 319 323 326 326 327 329 331 330 329 327 328 329 329 331 335 337 336 334
208 218 233 239 247 253 260 267 269 268 269 271 277 282 284 287 294 298 301 295 306 304 308 313 317 320 321 322 324 324 324 326 326 325 325 325 327 329 330 334 337 336 335
229 228 234 243 253 264 273 276 277 279 278 277 280 285 288 291 294 297 298 302 306 311 312 313 315 317 318 320 320 319 320 321 322 322 321 321 325 327 329 331 333 335 335
228 236 244 257 268 274 276 276 276 278 284 292 295 290 284 288 290 289 292 301 307 309 310 310 311 313 315 317 318 317 317 319 319 319 317 318 322 323 327 328 332 334 335
241 252 260 266 268 269 270 274 281 288 292 292 291 290 293 296 303 304 306 305 305 305 307 308 311 313 314 315 315 314 315 316 316 315 313 315 318 319 323 325 328 332 335
251 257 262 266 270 276 279 281 281 284 288 289 291 291 293 297 300 302 303 304 304 305 307 307 309 311 312 314 314 313 312 313 314 311 308 311 314 315 318 321 327 331 336
258 267 275 278 278 277 277 280 284 287 289 291 294 296 295 296 299 301 303 305 305 306 306 306 307 309 310 310 311 310 310 311 310 307 305 306 310 311 314 317 325 330 334
267 272 274 277 281 283 284 286 287 286 287 291 293 296 298 299 300 302 304 305 305 306 308 308 307 308 308 308 308 309 307 306 304 303 299 303 307 307 307 313 324 329 328
270 274 280 287 286 286 286 288 288 289 290 291 294 295 297 300 302 303 305 305 305 306 306 305 306 306 306 306 307 308 305 303 300 297 295 295 297 301 307 312 319 321 322
283 286 288 287 287 288 289 288 288 289 290 291 293 295 299 301 302 304 306 307 307 306 305 306 305 305 306 306 307 305 303 302 298 291 290 296 298 303 308 305 311 316 317